| time (UTC) | temp C | wind direction | speed KPH | gust KPH | rain 1hr cm | rain 24hr cm | rain mn cm | humidity % | barometer mb |
| 20260507001534 | 20 | 25 | 4.8 | 12.9 | 0.00 | 0.00 | 0.00 | 22 | 1007.6 |
| 20260507000121 | 20 | 348 | 6.4 | 17.7 | 0.00 | 0.00 | 0.00 | 21 | 1007.7 |
| 20260506234517 | 20 | 5 | 0.0 | 14.5 | 0.00 | 0.00 | 0.00 | 21 | 1007.9 |
| 20260506233014 | 20 | 306 | 4.8 | 14.5 | 0.00 | 0.00 | 0.00 | 21 | 1008.0 |
| 20260506231513 | 20 | 334 | 6.4 | 20.9 | 0.00 | 0.00 | 0.00 | 21 | 1008.2 |
| 20260506230007 | 20 | 355 | 8.0 | 17.7 | 0.00 | 0.00 | 0.00 | 20 | 1008.5 |
| 20260506224504 | 20 | 254 | 6.4 | 12.9 | 0.00 | 0.00 | 0.00 | 20 | 1008.9 |
| 20260506223001 | 20 | 333 | 11.3 | 19.3 | 0.00 | 0.00 | 0.00 | 20 | 1009.2 |
| 20260506221558 | 19 | 265 | 6.4 | 16.1 | 0.00 | 0.00 | 0.00 | 21 | 1009.6 |
| 20260506220057 | 19 | 291 | 8.0 | 16.1 | 0.00 | 0.00 | 0.00 | 23 | 1009.9 |
| 20260506214608 | 19 | 253 | 4.8 | 14.5 | 0.00 | 0.00 | 0.00 | 21 | 1010.2 |
| 20260506213049 | 18 | 227 | 3.2 | 12.9 | 0.00 | 0.00 | 0.00 | 22 | 1010.4 |
| 20260506211547 | 17 | 321 | 6.4 | 17.7 | 0.00 | 0.00 | 0.00 | 21 | 1010.7 |
| 20260506210049 | 17 | 262 | 11.3 | 19.3 | 0.00 | 0.00 | 0.00 | 22 | 1010.9 |
| 20260506204543 | 17 | 290 | 8.0 | 12.9 | 0.00 | 0.00 | 0.00 | 22 | 1011.3 |
| 20260506203045 | 16 | 232 | 8.0 | 17.7 | 0.00 | 0.00 | 0.00 | 22 | 1011.7 |
| 20260506201537 | 17 | 232 | 8.0 | 16.1 | 0.00 | 0.00 | 0.00 | 22 | 1012.0 |
| 20260506200035 | 16 | 229 | 8.0 | 19.3 | 0.00 | 0.00 | 0.00 | 22 | 1012.3 |
| 20260506194532 | 15 | 234 | 3.2 | 14.5 | 0.00 | 0.00 | 0.00 | 22 | 1012.6 |
| 20260506193029 | 15 | 188 | 8.0 | 22.5 | 0.00 | 0.00 | 0.00 | 24 | 1012.8 |
| 20260506191533 | 15 | 138 | 1.6 | 24.1 | 0.00 | 0.00 | 0.00 | 25 | 1013.0 |
| 20260506190024 | 15 | 234 | 8.0 | 20.9 | 0.00 | 0.00 | 0.00 | 24 | 1013.6 |
| 20260506184526 | 14 | 222 | 9.7 | 20.9 | 0.00 | 0.00 | 0.00 | 24 | 1013.9 |
| 20260506183016 | 13 | 207 | 9.7 | 20.9 | 0.00 | 0.00 | 0.00 | 24 | 1014.2 |
| 20260506181514 | 13 | 218 | 14.5 | 27.4 | 0.00 | 0.00 | 0.00 | 24 | 1014.4 |
| 20260506180017 | 12 | 185 | 11.3 | 25.7 | 0.00 | 0.00 | 0.00 | 28 | 1014.7 |
| 20260506174507 | 12 | 166 | 6.4 | 16.1 | 0.00 | 0.00 | 0.00 | 29 | 1015.0 |
| 20260506173005 | 11 | 192 | 8.0 | 25.7 | 0.00 | 0.00 | 0.00 | 28 | 1015.4 |
| 20260506171506 | 11 | 192 | 11.3 | 20.9 | 0.00 | 0.00 | 0.00 | 32 | 1015.8 |
| 20260506164601 | 10 | 202 | 12.9 | 27.4 | 0.00 | 0.00 | 0.00 | 36 | 1016.1 |
| 20260506163058 | 10 | 234 | 12.9 | 22.5 | 0.00 | 0.00 | 0.00 | 39 | 1016.4 |
| 20260506161553 | 8 | 196 | 12.9 | 20.9 | 0.00 | 0.00 | 0.00 | 43 | 1016.8 |
| 20260506160044 | 8 | 235 | 11.3 | 22.5 | 0.00 | 0.00 | 0.00 | 45 | 1016.9 |
| 20260506154547 | 7 | 226 | 11.3 | 20.9 | 0.00 | 0.00 | 0.00 | 47 | 1017.3 |
| 20260506153038 | 7 | 223 | 11.3 | 17.7 | 0.00 | 0.00 | 0.00 | 46 | 1017.6 |
| 20260506151537 | 6 | 193 | 8.0 | 16.1 | 0.00 | 0.00 | 0.00 | 47 | 1017.8 |
| 20260506150029 | 5 | 221 | 9.7 | 14.5 | 0.00 | 0.00 | 0.00 | 45 | 1018.2 |
| 20260506144527 | 5 | 192 | 9.7 | 16.1 | 0.00 | 0.00 | 0.00 | 46 | 1018.3 |
| 20260506143023 | 4 | 206 | 8.0 | 16.1 | 0.00 | 0.00 | 0.00 | 47 | 1018.3 |
| 20260506141519 | 3 | 204 | 8.0 | 11.3 | 0.00 | 0.00 | 0.00 | 48 | 1018.4 |
| 20260506140021 | 1 | 209 | 6.4 | 11.3 | 0.00 | 0.00 | 0.00 | 52 | 1018.6 |
| 20260506134513 | 1 | 207 | 8.0 | 12.9 | 0.00 | 0.00 | 0.00 | 53 | 1018.6 |
| 20260506133007 | 0 | 196 | 4.8 | 11.3 | 0.00 | 0.00 | 0.00 | 56 | 1018.6 |
| 20260506131510 | 0 | 227 | 6.4 | 12.9 | 0.00 | 0.00 | 0.00 | 58 | 1018.7 |
| 20260506124558 | -2 | 286 | 1.6 | 8.0 | 0.00 | 0.00 | 0.00 | 65 | 1018.7 |
| 20260506123057 | -3 | 263 | 1.6 | 6.4 | 0.00 | 0.00 | 0.00 | 66 | 1018.8 |
| 20260506121555 | -4 | 279 | 0.0 | 1.6 | 0.00 | 0.00 | 0.00 | 68 | 1018.9 |
| 20260506120054 | -5 | 279 | 0.0 | 3.2 | 0.00 | 0.00 | 0.00 | 68 | 1018.9 |
| 20260506114558 | -5 | 279 | 0.0 | 3.2 | 0.00 | 0.00 | 0.00 | 67 | 1019.1 |
| 20260506113053 | -5 | 283 | 1.6 | 4.8 | 0.00 | 0.00 | 0.00 | 67 | 1019.2 |
| 20260506111551 | -5 | 284 | 3.2 | 4.8 | 0.00 | 0.00 | 0.00 | 67 | 1019.3 |
| 20260506110047 | -5 | 277 | 1.6 | 4.8 | 0.00 | 0.00 | 0.00 | 67 | 1019.4 |
| 20260506104554 | -5 | 277 | 1.6 | 6.4 | 0.00 | 0.00 | 0.00 | 67 | 1019.5 |
| 20260506103043 | -5 | 277 | 1.6 | 4.8 | 0.00 | 0.00 | 0.00 | 65 | 1019.5 |
| 20260506101549 | -5 | 281 | 3.2 | 4.8 | 0.00 | 0.00 | 0.00 | 65 | 1019.6 |
| 20260506100041 | -5 | 277 | 1.6 | 4.8 | 0.00 | 0.00 | 0.00 | 67 | 1019.8 |
| 20260506094539 | -6 | 257 | 0.0 | 4.8 | 0.00 | 0.00 | 0.00 | 66 | 1019.9 |
| 20260506093036 | -5 | 293 | 1.6 | 6.4 | 0.00 | 0.00 | 0.00 | 65 | 1020.0 |
| 20260506091535 | -5 | 276 | 3.2 | 8.0 | 0.00 | 0.00 | 0.00 | 66 | 1020.1 |
| 20260506090035 | -6 | 303 | 0.0 | 6.4 | 0.00 | 0.00 | 0.00 | 65 | 1020.1 |
| 20260506084538 | -5 | 290 | 0.0 | 6.4 | 0.00 | 0.00 | 0.00 | 64 | 1020.1 |
| 20260506083032 | -5 | 287 | 1.6 | 6.4 | 0.00 | 0.00 | 0.00 | 64 | 1020.1 |
| 20260506081528 | -5 | 287 | 1.6 | 3.2 | 0.00 | 0.00 | 0.00 | 65 | 1020.2 |
| 20260506073019 | -4 | 53 | 0.0 | 1.6 | 0.00 | 0.00 | 0.00 | 63 | 1020.5 |
| 20260506071518 | -5 | 53 | 1.6 | 4.8 | 0.00 | 0.00 | 0.00 | 63 | 1020.6 |
| 20260506061504 | -2 | 53 | 1.6 | 4.8 | 0.00 | 0.00 | 0.00 | 56 | 1020.7 |
| 20260506060104 | -2 | 53 | 0.0 | 4.8 | 0.00 | 0.00 | 0.00 | 57 | 1020.6 |
| 20260506044623 | 2 | 60 | 1.6 | 4.8 | 0.00 | 0.00 | 0.00 | 44 | 1020.6 |
| 20260506043053 | 2 | 5 | 1.6 | 6.4 | 0.00 | 0.00 | 0.00 | 43 | 1020.7 |
| 20260506041553 | 3 | 5 | 1.6 | 8.0 | 0.00 | 0.00 | 0.00 | 42 | 1020.7 |
| 20260506040052 | 3 | 348 | 6.4 | 9.7 | 0.00 | 0.00 | 0.00 | 42 | 1020.7 |
| 20260506034552 | 3 | 15 | 4.8 | 9.7 | 0.00 | 0.00 | 0.00 | 41 | 1020.7 |
| 20260506033052 | 3 | 350 | 3.2 | 8.0 | 0.00 | 0.00 | 0.00 | 41 | 1020.6 |
| 20260506031549 | 3 | 346 | 3.2 | 8.0 | 0.00 | 0.00 | 0.00 | 40 | 1020.5 |
| 20260506030049 | 5 | 349 | 4.8 | 9.7 | 0.00 | 0.00 | 0.00 | 38 | 1020.3 |
| 20260506024549 | 5 | 13 | 4.8 | 9.7 | 0.00 | 0.00 | 0.00 | 37 | 1020.1 |
| 20260506023149 | 6 | 360 | 3.2 | 12.9 | 0.00 | 0.00 | 0.00 | 35 | 1020.1 |
| 20260506021555 | 7 | 360 | 6.4 | 14.5 | 0.00 | 0.00 | 0.00 | 33 | 1020.0 |
| 20260506020048 | 7 | 360 | 9.7 | 22.5 | 0.00 | 0.00 | 0.00 | 32 | 1019.8 |
| 20260506014546 | 7 | 5 | 14.5 | 24.1 | 0.00 | 0.00 | 0.00 | 32 | 1019.8 |
| 20260506013045 | 8 | 334 | 9.7 | 19.3 | 0.00 | 0.00 | 0.00 | 31 | 1019.8 |
| 20260506011544 | 8 | 5 | 12.9 | 25.7 | 0.00 | 0.00 | 0.00 | 31 | 1019.7 |
| 20260506010054 | 8 | 12 | 12.9 | 27.4 | 0.00 | 0.00 | 0.00 | 29 | 1019.5 |
| 20260506004549 | 8 | 355 | 14.5 | 24.1 | 0.00 | 0.00 | 0.00 | 30 | 1019.6 |
| 20260506003043 | 8 | 15 | 11.3 | 29.0 | 0.00 | 0.00 | 0.00 | 30 | 1019.6 |